Weather History for West Palm Beach, FL

Change the Weather History Date:

Saturday, December 15, 2012

  Actual Average Record
Temperature  
Mean Temperature 75 °F 68 °F  
Max Temperature 80 °F 76 °F 87 °F (1951)
Min Temperature 70 °F 60 °F 35 °F (2010)
Degree Days  
Heating Degree Days 0 2  
Month to date heating degree days 0 20  
Since 1 July heating degree days 12 32  
Cooling Degree Days 10 5  
Month to date cooling degree days 154 84  
Year to date cooling degree days 4178 3950  
Growing Degree Days 25 (Base 50)    
Moisture  
Dew Point 62 °F    
Average Humidity 69    
Maximum Humidity 84    
Minimum Humidity 54    
Precipitation  
Precipitation T in 0.10 in 3.10 in (2009)
Month to date precipitation 1.12 1.59  
Year to date precipitation 78.72 60.54  
Snow  
Snow 0.00 in - - ()
Month to date snowfall 0.0  
Since 1 July snowfall 0.0  
Snow Depth 0.00 in    
Sea Level Pressure  
Sea Level Pressure 30.06 in    
Wind  
Wind Speed 11 mph (East)    
Max Wind Speed 18 mph    
Max Gust Speed 23 mph    
Visibility 10 miles    
Events Rain    
T = Trace of Precipitation, MM = Missing Value Source: NWS Daily Summary

Daily Weather History Graph

Daily Weather History Graph

Search for Another Location

Airport:

Trip Planner

Search our weather history database for the weather conditions in past years. The results will help you decide how hot, cold, wet, or windy it might be!

Date:

Astronomy

Dec. 15, 2012 Rise Set
Actual Time 7:01 AM EST 5:30 PM EST
Civil Twilight 6:36 AM EST 5:55 PM EST
Nautical Twilight 6:07 AM EST 6:24 PM EST
Astronomical Twilight 5:38 AM EST 6:52 PM EST
Moon 9:02 AM EST (12/15) 8:20 PM EST (12/15)
Length of Visible Light 11h 19m
Length of Day
10h 28m
Waxing Crescent, 8% of the Moon is Illuminated
Dec 15
Waxing Crescent
Dec 20
First Quarter
Dec 28
Full
Jan 4
Last Quarter
Jan 11
New

Hourly Weather History & Observations

Time (EST) Temp. Heat Index Dew Point Humidity Pressure Visibility Wind Dir Wind Speed Gust Speed Precip Events Conditions
12:53 AM 72.0 °F - 64.0 °F 76% 30.06 in 10.0 mi ENE 12.7 mph 18.4 mph 0.00 in Rain Light Rain
1:53 AM 73.0 °F - 63.0 °F 71% 30.04 in 10.0 mi East 12.7 mph - 0.00 in   Mostly Cloudy
2:53 AM 73.0 °F - 63.0 °F 71% 30.03 in 10.0 mi East 11.5 mph - N/A   Mostly Cloudy
3:53 AM 73.0 °F - 63.0 °F 71% 30.03 in 10.0 mi East 12.7 mph - N/A   Partly Cloudy
4:53 AM 73.0 °F - 63.0 °F 71% 30.05 in 10.0 mi ENE 9.2 mph - N/A   Scattered Clouds
5:53 AM 73.0 °F - 63.0 °F 71% 30.06 in 10.0 mi ENE 8.1 mph - N/A   Scattered Clouds
6:53 AM 73.0 °F - 62.1 °F 68% 30.07 in 10.0 mi ENE 9.2 mph - N/A   Mostly Cloudy
7:53 AM 73.9 °F - 62.1 °F 66% 30.09 in 10.0 mi ENE 10.4 mph - N/A   Mostly Cloudy
8:53 AM 75.9 °F - 62.1 °F 62% 30.09 in 10.0 mi ENE 11.5 mph - N/A   Mostly Cloudy
9:53 AM 75.9 °F - 62.1 °F 62% 30.11 in 10.0 mi East 12.7 mph - N/A   Scattered Clouds
10:53 AM 78.1 °F - 64.0 °F 62% 30.10 in 10.0 mi ENE 10.4 mph - N/A   Mostly Cloudy
11:53 AM 80.1 °F 81.5 °F 63.0 °F 56% 30.08 in 10.0 mi East 12.7 mph 21.9 mph N/A   Mostly Cloudy
12:53 PM 77.0 °F - 62.1 °F 60% 30.07 in 10.0 mi ENE 12.7 mph - 0.00 in Rain Light Rain
1:53 PM 77.0 °F - 61.0 °F 58% 30.05 in 10.0 mi ENE 12.7 mph - 0.00 in   Mostly Cloudy
2:53 PM 78.1 °F - 61.0 °F 56% 30.04 in 10.0 mi ENE 11.5 mph - N/A   Mostly Cloudy
3:53 PM 77.0 °F - 61.0 °F 58% 30.04 in 10.0 mi East 12.7 mph - N/A   Mostly Cloudy
4:53 PM 75.9 °F - 62.1 °F 62% 30.04 in 10.0 mi East 12.7 mph - N/A   Mostly Cloudy
5:53 PM 75.0 °F - 60.1 °F 60% 30.05 in 10.0 mi ENE 10.4 mph - N/A   Mostly Cloudy
6:53 PM 75.0 °F - 62.1 °F 64% 30.06 in 10.0 mi East 9.2 mph - N/A   Mostly Cloudy
7:53 PM 75.0 °F - 63.0 °F 66% 30.08 in 10.0 mi East 11.5 mph - N/A   Mostly Cloudy
8:53 PM 73.9 °F - 63.0 °F 68% 30.08 in 10.0 mi East 10.4 mph - N/A   Scattered Clouds
9:53 PM 73.9 °F - 64.0 °F 71% 30.06 in 10.0 mi East 13.8 mph - N/A   Scattered Clouds
10:53 PM 73.0 °F - 63.0 °F 71% 30.06 in 10.0 mi East 10.4 mph - N/A   Scattered Clouds
11:53 PM 73.0 °F - 63.0 °F 71% 30.05 in 10.0 mi ESE 10.4 mph - N/A   Scattered Clouds